Back to catalog

DELTA 1 DEB

AliveSSO
NORAD 26835·DEBRIS·🇺🇸 United States

Launched Jun 12, 1975 from Vandenberg Space Force Base

Loading…

Next Passes (next 24 hours)

TLE

FreshSource: Space-Track

Epoch: Sep 14, 2026, 13:31 UTC

1 26835U 75052KP  26257.56355576  .00001122  00000-0  11065-2 0  9998
2 26835  99.6923 111.5878 0039447 273.8699 104.3960 13.80698745732899

Track DELTA 1 DEB in real time with AllMySat

Download on the App Store